Location: Coupvray
(48.8929°N, 2.7967°E)
Time: 23:59:20
(UTC+00:00)

Cosmos 1241 Rocket - Pass Details

Date: 04 November 2020
Orbit: 929 x 1018 km, 65.8° (Epoch: 28 November)

Event Time Altitude Azimuth Distance (km) Brightness Sun altitude
Rises 18:36:43 0° 293° (WNW) 3,698 8.7 -22.3°
Reaches altitude 10° 18:40:15 10° 312° (NW) 2,767 7.5 -22.9°
Maximum altitude 18:44:33 18° 354° (N) 2,249 6.5 -23.6°
Enters shadow 18:47:41 13° 26° (NNE) 2,552 6.5 -24.1°
